Hourly Data Report for May 29, 2021

OTTAWA INTL A
ONTARIO
Current Station Operator: NAVCAN

45°19'00.000" N
75°40'00.000" W
114.90 m
6106001
71628
YOW

Download Data

Hourly Data (May 2021)
Hourly Data Report for May 29, 2021
TIME
LST
Temp Definition
°C
Dew Point Definition
°C
Rel Hum Definition
%
Precip. Amount Definition
mm

Wind Dir Definition
10's deg

Wind Spd Definition
km/h
Visibility Definition
km
Stn Press Definition
kPa
Hmdx Definition


Wind Chill Definition


Weather Definition


00:00 5.3 -2.0 59   36 9 24.1 100.62     LegendNANA
01:00 4.5 -0.7 69   3 15 24.1 100.64     Mostly Cloudy
02:00 4.2 -0.9 69   3 18 24.1 100.62     LegendNANA
03:00 3.7 -1.3 70   3 13 24.1 100.61     LegendNANA
04:00 3.0 -1.5 72   4 16 24.1 100.62     Clear
05:00 5.2 -1.3 63   2 13 24.1 100.68     LegendNANA
06:00 7.7 -2.0 50   3 17 24.1 100.74     LegendNANA
07:00 10.0 -2.2 42   4 20 24.1 100.82     Clear
08:00 12.2 -3.1 34   4 22 24.1 100.86     LegendNANA
09:00 14.3 -4.4 27   4 25 24.1 100.86     LegendNANA
10:00 15.2 -4.4 25   3 25 24.1 100.85     Mainly Clear
11:00 16.2 -3.5 26   5 21 24.1 100.84     LegendNANA
12:00 17.0 -3.4 24   3 21 24.1 100.83     LegendNANA
13:00 17.7 -4.0 22   5 19 24.1 100.81     Mainly Clear
14:00 18.4 -5.0 20   4 22 24.1 100.80     LegendNANA
15:00 18.5 -4.7 20   3 18 24.1 100.78     LegendNANA
16:00 18.3 -4.5 21   35 12 24.1 100.78     Clear
17:00 18.2 -4.7 20   7 16 24.1 100.78     LegendNANA
18:00 17.6 -4.5 22   6 14 24.1 100.81     LegendNANA
19:00 16.0 -4.6 24   7 12 24.1 100.86     Clear
20:00 12.6 -2.8 34   12 10 24.1 100.91     LegendNANA
21:00 9.9 -3.1 40   13 12 24.1 100.98     LegendNANA
22:00 9.2 -3.8 40   11 9 24.1 101.02     Clear
23:00 9.6 -5.2 35   9 11 24.1 101.04     LegendNANA

Notes on Data Quality.

Legend

  • E = Estimated
  • M = Missing
  • NA = Not Available*
  • [empty] = Indicates an unobserved value
Date modified: